sat.trackr.live / text

‹ back to catalog

COSMOS 2518 (EKS 2)

NORAD 42719 · 2017-027A

PAYLOAD ACTIVE UNKNOWN

§ Identity

Operator
Country
CIS
Launch date
2017-05-25
Launch site
PLMSC
Launch vehicle
Mass (kg)
RCS (m²)

External: N2YO · Heavens-Above · Gunter

§ Orbital elements

Epoch: 2026-09-04T18:50:37.639968Z

Period
717.34 min
Inclination
63.0194°
Eccentricity
0.6930005
Mean motion
2.00742015 rev/d
Perigee alt
1,771.0 km
Apogee alt
38,561.9 km
Semi-major
26,544.6 km
B*
0.0000e+0
RAAN
238.9677°
Arg perigee
273.8909°
Mean anomaly
16.0991°
Rev number
6,800

§ Raw data

COSMOS 2518 (EKS 2)1 42719U 17027A   26247.78515787  .00000008  00000+0  00000+0 0  99952 42719  63.0194 238.9677 6930005 273.8909  16.0991  2.00742015 68002

JSON: /api/v1/satellites/42719 · /tle

For live sub-satellite position, see the globe view (requires WebGL).

§ Visibility from observer

Set your observer location to see the next 7 days of passes ≥ 10°. The values pass through the URL so the page stays shareable.

No JS? Fill the form by hand. The geolocation button needs JavaScript.